DW8633 Weather Reports


Display with metric or nautical units.
time (UTC)temp
F
wind
direction
speed
MPH
gust
MPH
rain 1hr
in
rain 24hr
in
rain mn
in
humidity
%
barometer
mb
20260502170513 64 345 15.0 21.0 0.00 0.00 0.00 38 933.0
20260502164009 64 351 17.0 26.0 0.00 0.00 0.00 40 932.9
20260502163512 63 11 18.0 24.0 0.00 0.00 0.00 39 932.9
20260502163009 64 10 18.0 24.0 0.00 0.00 0.00 40 932.9
20260502162012 64 5 15.0 22.0 0.00 0.00 0.00 40 932.7
20260502161508 64 355 17.0 22.0 0.00 0.00 0.00 41 932.7
20260502161010 63 355 16.0 23.0 0.00 0.00 0.00 41 932.8
20260502160510 64 344 15.0 23.0 0.00 0.00 0.00 40 932.6
20260502152002 62 344 13.0 18.0 0.00 0.00 0.00 42 932.4
20260502151504 63 344 11.0 22.0 0.00 0.00 0.00 43 932.4
20260502151002 62 340 12.0 22.0 0.00 0.00 0.00 42 932.5
20260502150603 62 360 13.0 19.0 0.00 0.00 0.00 42 932.5
20260502150502 62 341 13.0 19.0 0.00 0.00 0.00 43 932.5
20260502150114 61 351 11.0 18.0 0.00 0.00 0.00 42 932.4
20260502130542 50 360 6.0 9.0 0.00 0.00 0.00 56 932.2
20260502123541 49 360 5.0 10.0 0.00 0.00 0.00 55 932.2
20260502123041 48 360 6.0 10.0 0.00 0.00 0.00 55 932.1
20260502122641 47 360 4.0 6.0 0.00 0.00 0.00 57 932.0
20260502122041 47 360 4.0 6.0 0.00 0.00 0.00 56 932.0
20260502121545 47 360 4.0 6.0 0.00 0.00 0.00 55 932.0
20260502121039 48 360 3.0 9.0 0.00 0.00 0.00 54 931.9
20260502120539 49 360 6.0 10.0 0.00 0.00 0.00 52 931.9
20260502115540 53 360 9.0 14.0 0.00 0.00 0.00 46 931.5
20260502115039 53 360 10.0 16.0 0.00 0.00 0.00 46 931.2
20260502114538 53 360 12.0 19.0 0.00 0.00 0.00 46 931.2
20260502114039 53 360 12.0 21.0 0.00 0.00 0.00 46 931.1
20260502113538 53 360 13.0 21.0 0.00 0.00 0.00 46 931.1
20260502113038 52 360 12.0 21.0 0.00 0.00 0.00 47 931.2
20260502112036 50 360 14.0 23.0 0.00 0.00 0.00 50 931.5
20260502111536 49 360 10.0 14.0 0.00 0.00 0.00 52 931.7
20260502111036 48 360 9.0 12.0 0.00 0.00 0.00 53 931.7
20260502110535 48 360 8.0 10.0 0.00 0.00 0.00 52 931.9
20260502110033 48 360 6.0 8.0 0.00 0.00 0.00 51 932.0
20260502105633 49 360 6.0 10.0 0.00 0.00 0.00 50 932.1
20260502105033 49 360 7.0 12.0 0.00 0.00 0.00 49 931.9
20260502104542 50 360 9.0 15.0 0.00 0.00 0.00 48 931.8
20260502104028 50 360 10.0 21.0 0.00 0.00 0.00 47 931.9
20260502103528 50 360 13.0 21.0 0.00 0.00 0.00 47 931.6
20260502103028 50 360 13.0 19.0 0.00 0.00 0.00 46 931.7
20260502102028 52 360 11.0 15.0 0.00 0.00 0.00 44 931.2
20260502101526 52 360 9.0 14.0 0.00 0.00 0.00 43 931.1
20260502101030 53 360 9.0 14.0 0.00 0.00 0.00 43 931.2
20260502100526 53 360 10.0 13.0 0.00 0.00 0.00 42 931.2
20260502091525 53 360 7.0 12.0 0.00 0.00 0.00 41 931.5
20260502091023 53 360 6.0 10.0 0.00 0.00 0.00 41 931.5
20260502090522 53 360 5.0 13.0 0.00 0.00 0.00 41 931.6
20260502071525 51 360 6.0 13.0 0.00 0.00 0.00 41 932.2
20260502071014 51 360 8.0 14.0 0.00 0.00 0.00 41 932.1
20260502070512 51 360 9.0 14.0 0.00 0.00 0.00 40 932.1
20260502070011 51 360 10.0 16.0 0.00 0.00 0.00 40 932.1
20260502065510 52 360 10.0 19.0 0.00 0.00 0.00 40 932.2
20260502065008 52 360 13.0 22.0 0.00 0.00 0.00 39 932.2
20260502064511 53 360 13.0 23.0 0.00 0.00 0.00 38 932.3
20260502064006 53 360 15.0 24.0 0.00 0.00 0.00 37 932.3
20260502063505 53 360 15.0 24.0 0.00 0.00 0.00 37 932.2
20260502063005 53 360 15.0 24.0 0.00 0.00 0.00 37 932.3
20260502062004 54 360 14.0 23.0 0.00 0.00 0.00 36 932.4
20260502061502 54 360 17.0 23.0 0.00 0.00 0.00 36 932.4
20260502061002 53 360 14.0 21.0 0.00 0.00 0.00 36 932.6
20260502060501 53 360 14.0 21.0 0.00 0.00 0.00 36 932.6
20260502060001 53 360 14.0 21.0 0.00 0.00 0.00 36 932.7
20260502055604 53 360 13.0 21.0 0.00 0.00 0.00 36 932.7
20260502055102 53 360 13.0 20.0 0.00 0.00 0.00 36 932.8
20260502054600 53 360 13.0 21.0 0.00 0.00 0.00 36 932.8
20260502054100 53 360 13.0 20.0 0.00 0.00 0.00 35 932.9
20260502053603 53 360 13.0 19.0 0.00 0.00 0.00 35 933.0
20260502053058 53 360 13.0 20.0 0.00 0.00 0.00 35 932.8
20260502052700 53 360 12.0 20.0 0.00 0.00 0.00 34 933.0
20260502052059 54 360 11.0 20.0 0.00 0.00 0.00 34 933.1
20260502051654 54 360 13.0 20.0 0.00 0.00 0.00 34 933.2
20260502051057 54 360 13.0 19.0 0.00 0.00 0.00 34 933.2
20260502050557 54 360 9.0 15.0 0.00 0.00 0.00 33 933.3
20260502050100 53 360 10.0 15.0 0.00 0.00 0.00 33 933.3
20260502045557 53 360 10.0 15.0 0.00 0.00 0.00 33 933.3
20260502045056 53 360 10.0 15.0 0.00 0.00 0.00 33 933.4
20260502044606 53 360 9.0 13.0 0.00 0.00 0.00 34 933.5
20260502044054 53 360 8.0 13.0 0.00 0.00 0.00 34 933.5
20260502043555 53 360 9.0 13.0 0.00 0.00 0.00 34 933.5
20260502043054 52 360 8.0 12.0 0.00 0.00 0.00 35 933.6
20260502042655 52 360 7.0 12.0 0.00 0.00 0.00 35 933.6
20260502042055 52 360 7.0 12.0 0.00 0.00 0.00 35 933.6
20260502041555 52 360 7.0 12.0 0.00 0.00 0.00 35 933.7
20260502041057 52 360 8.0 12.0 0.00 0.00 0.00 35 933.8
20260502040554 52 360 8.0 12.0 0.00 0.00 0.00 35 933.8
20260502040054 52 360 8.0 12.0 0.00 0.00 0.00 35 933.8
20260502035553 52 360 8.0 11.0 0.00 0.00 0.00 35 933.9
20260502035057 52 360 7.0 11.0 0.00 0.00 0.00 35 934.0
20260502034552 52 360 6.0 10.0 0.00 0.00 0.00 35 933.9
20260502034054 52 360 7.0 11.0 0.00 0.00 0.00 35 934.0
20260502033551 52 360 7.0 10.0 0.00 0.00 0.00 35 934.0
20260502033055 52 360 7.0 9.0 0.00 0.00 0.00 35 934.1
20260502032652 52 360 6.0 9.0 0.00 0.00 0.00 35 934.0
20260502032050 52 360 6.0 9.0 0.00 0.00 0.00 35 934.1
20260502031607 52 360 6.0 9.0 0.00 0.00 0.00 35 934.0
20260502031050 52 360 6.0 9.0 0.00 0.00 0.00 34 934.2
20260502030554 52 360 6.0 9.0 0.00 0.00 0.00 34 934.2
20260502030049 53 360 6.0 8.0 0.00 0.00 0.00 34 934.1
20260502025549 53 360 6.0 8.0 0.00 0.00 0.00 33 934.1
20260502025048 53 360 6.0 8.0 0.00 0.00 0.00 33 934.0
20260502024554 53 360 6.0 9.0 0.00 0.00 0.00 34 934.1
20260502024049 53 360 6.0 9.0 0.00 0.00 0.00 34 934.2
20260502023549 52 360 6.0 8.0 0.00 0.00 0.00 34 934.1
20260502023049 53 360 6.0 8.0 0.00 0.00 0.00 33 934.0
20260502022649 55 360 5.0 7.0 0.00 0.00 0.00 31 934.1
20260502022049 55 360 5.0 7.0 0.00 0.00 0.00 31 934.0
20260502021552 56 360 5.0 7.0 0.00 0.00 0.00 30 934.0
20260502021049 56 190 5.0 8.0 0.00 0.00 0.00 30 934.0
20260502020550 56 360 5.0 8.0 0.00 0.00 0.00 29 934.0
20260502015547 58 360 5.0 8.0 0.00 0.00 0.00 28 934.1
20260502015052 59 360 5.0 7.0 0.00 0.00 0.00 28 934.0
20260502014548 60 213 4.0 6.0 0.00 0.00 0.00 28 934.1
20260502014048 61 219 3.0 5.0 0.00 0.00 0.00 27 934.1
20260502013548 61 219 3.0 6.0 0.00 0.00 0.00 26 934.2
20260502013048 63 219 4.0 7.0 0.00 0.00 0.00 25 934.2
20260502012048 64 233 5.0 10.0 0.00 0.00 0.00 24 934.2
20260502011550 64 211 7.0 10.0 0.00 0.00 0.00 22 934.2
20260502011045 65 215 6.0 9.0 0.00 0.00 0.00 22 934.3
20260502010547 65 216 6.0 9.0 0.00 0.00 0.00 22 934.2
20260502010052 65 229 6.0 10.0 0.00 0.00 0.00 22 934.3
20260502005545 66 219 6.0 10.0 0.00 0.00 0.00 23 934.3
20260502005047 66 231 7.0 12.0 0.00 0.00 0.00 22 934.4
20260502004544 66 217 6.0 12.0 0.00 0.00 0.00 22 934.4
20260502004043 66 216 8.0 12.0 0.00 0.00 0.00 22 934.4
20260502003547 66 219 8.0 12.0 0.00 0.00 0.00 22 934.4
20260502003043 66 221 7.0 13.0 0.00 0.00 0.00 22 934.5
20260502002645 67 230 6.0 13.0 0.00 0.00 0.00 21 934.5
20260502002044 67 240 6.0 13.0 0.00 0.00 0.00 21 934.5
20260502001544 67 249 7.0 13.0 0.00 0.00 0.00 21 934.5
20260502001043 67 227 6.0 11.0 0.00 0.00 0.00 20 934.6
20260502000543 67 227 9.0 11.0 0.00 0.00 0.00 20 934.6
20260502000043 67 215 6.0 9.0 0.00 0.00 0.00 22 934.5
20260501235545 67 211 6.0 11.0 0.00 0.00 0.00 22 934.5
20260501235043 67 194 7.0 12.0 0.00 0.00 0.00 21 934.5
20260501234551 67 238 6.0 14.0 0.00 0.00 0.00 21 934.5
20260501234042 68 223 9.0 14.0 0.00 0.00 0.00 21 934.6
20260501233542 68 257 2.0 19.0 0.00 0.00 0.00 21 934.6
20260501233042 67 211 6.0 20.0 0.00 0.00 0.00 22 934.5
20260501232541 67 186 8.0 13.0 0.00 0.00 0.00 21 934.6
20260501232045 67 190 7.0 13.0 0.00 0.00 0.00 22 934.6
20260501231554 67 162 6.0 14.0 0.00 0.00 0.00 22 934.6
20260501231040 67 217 9.0 14.0 0.00 0.00 0.00 22 934.6
20260501230540 67 166 4.0 11.0 0.00 0.00 0.00 22 934.6
20260501230040 67 158 4.0 10.0 0.00 0.00 0.00 22 934.7
20260501225540 67 196 4.0 12.0 0.00 0.00 0.00 23 934.7
20260501225038 68 180 7.0 15.0 0.00 0.00 0.00 23 934.8
20260501224539 67 181 7.0 15.0 0.00 0.00 0.00 23 934.7
20260501224138 68 209 6.0 11.0 0.00 0.00 0.00 23 934.8
20260501223537 67 213 7.0 10.0 0.00 0.00 0.00 23 934.8
20260501223036 67 165 4.0 9.0 0.00 0.00 0.00 23 934.9
20260501222036 67 223 7.0 13.0 0.00 0.00 0.00 24 935.0
20260501221536 67 181 6.0 12.0 0.00 0.00 0.00 24 935.0
20260501221035 67 164 4.0 12.0 0.00 0.00 0.00 24 935.1
20260501220534 67 181 7.0 13.0 0.00 0.00 0.00 23 935.2
20260501220034 67 202 8.0 13.0 0.00 0.00 0.00 24 935.2
20260501215534 67 188 7.0 14.0 0.00 0.00 0.00 25 935.2
20260501215034 67 157 8.0 14.0 0.00 0.00 0.00 23 935.3
20260501214545 67 214 5.0 14.0 0.00 0.00 0.00 24 935.4
20260501214032 67 188 4.0 10.0 0.00 0.00 0.00 23 935.5
20260501213530 66 214 4.0 13.0 0.00 0.00 0.00 24 935.5
20260501213031 66 233 6.0 15.0 0.00 0.00 0.00 24 935.5
20260501212631 67 184 6.0 12.0 0.00 0.00 0.00 25 935.5
20260501212032 67 171 6.0 12.0 0.00 0.00 0.00 24 935.5
20260501211530 66 294 7.0 12.0 0.00 0.00 0.00 25 935.7
20260501211028 66 258 7.0 11.0 0.00 0.00 0.00 25 935.6
20260501210528 66 148 6.0 13.0 0.00 0.00 0.00 24 935.6
20260501210028 66 157 8.0 13.0 0.00 0.00 0.00 25 935.7
20260501205528 65 300 3.0 9.0 0.00 0.00 0.00 25 935.7
20260501205027 65 291 3.0 11.0 0.00 0.00 0.00 25 935.7
20260501204527 65 237 5.0 13.0 0.00 0.00 0.00 24 935.9
20260501204027 66 222 8.0 13.0 0.00 0.00 0.00 25 935.8
20260501203525 65 234 5.0 13.0 0.00 0.00 0.00 24 935.9
20260501203026 66 157 9.0 20.0 0.00 0.00 0.00 25 936.0
20260501202628 66 172 6.0 15.0 0.00 0.00 0.00 24 936.0
20260501202026 66 152 5.0 15.0 0.00 0.00 0.00 25 936.0
20260501201524 65 175 3.0 8.0 0.00 0.00 0.00 25 936.0
20260501201024 65 305 3.0 13.0 0.00 0.00 0.00 25 936.1
20260501200523 65 193 7.0 13.0 0.00 0.00 0.00 26 936.2
20260501200022 64 219 4.0 12.0 0.00 0.00 0.00 26 936.2
20260501195526 64 215 4.0 10.0 0.00 0.00 0.00 26 936.1
20260501195021 64 194 1.0 14.0 0.00 0.00 0.00 27 936.2
20260501194522 64 202 5.0 14.0 0.00 0.00 0.00 26 936.2
20260501194021 64 198 5.0 10.0 0.00 0.00 0.00 26 936.1
20260501193520 64 206 5.0 10.0 0.00 0.00 0.00 27 936.3
20260501193029 64 220 1.0 9.0 0.00 0.00 0.00 26 936.2
20260501192618 63 161 2.0 15.0 0.00 0.00 0.00 27 936.3
20260501192018 63 161 4.0 15.0 0.00 0.00 0.00 27 936.5
20260501191520 63 163 9.0 15.0 0.00 0.00 0.00 26 936.4
20260501191017 63 166 4.0 12.0 0.00 0.00 0.00 28 936.4
20260501190517 63 146 7.0 12.0 0.00 0.00 0.00 28 936.4
20260501190017 62 215 6.0 13.0 0.00 0.00 0.00 28 936.6
20260501185515 62 159 3.0 13.0 0.00 0.00 0.00 28 936.7
20260501185015 62 200 4.0 10.0 0.00 0.00 0.00 28 936.7
20260501184515 62 102 5.0 13.0 0.00 0.00 0.00 27 936.8
20260501184015 63 161 9.0 13.0 0.00 0.00 0.00 27 936.8
20260501183514 62 202 8.0 18.0 0.00 0.00 0.00 29 936.8
20260501183018 62 209 7.0 18.0 0.00 0.00 0.00 28 936.8
20260501182613 61 121 7.0 14.0 0.00 0.00 0.00 28 936.9
20260501182013 61 119 9.0 15.0 0.00 0.00 0.00 28 936.8
20260501181513 61 110 8.0 15.0 0.00 0.00 0.00 29 936.9
20260501181012 61 132 10.0 15.0 0.00 0.00 0.00 29 936.8
20260501180513 61 190 4.0 18.0 0.00 0.00 0.00 29 936.9
20260501180019 62 210 10.0 18.0 0.00 0.00 0.00 29 936.9
20260501175512 61 194 6.0 14.0 0.00 0.00 0.00 30 936.8
20260501175011 60 157 9.0 14.0 0.00 0.00 0.00 31 937.0
20260501174512 60 128 7.0 14.0 0.00 0.00 0.00 29 937.0
20260501174010 60 109 4.0 14.0 0.00 0.00 0.00 29 936.9
20260501173510 61 148 10.0 14.0 0.00 0.00 0.00 30 937.1
20260501173010 60 144 5.0 15.0 0.00 0.00 0.00 29 937.1
20260501172612 60 142 7.0 16.0 0.00 0.00 0.00 29 937.2
20260501172010 60 142 7.0 16.0 0.00 0.00 0.00 30 937.2
20260501171520 60 175 9.0 18.0 0.00 0.00 0.00 29 937.2